Home > Weather > Porto Velho > Past weeks

Flag for Brazil Weather for the Past 2 Weeks in Porto Velho, Rondônia, Brazil

Now
81 °F

Broken clouds.


Feels Like: 83 °F
Forecast: N/A
Wind: No wind

Location: Porto Velho Aeroporto

Current Time: Apr 29, 2016 at 6:51:55 PM

Latest Report: Apr 29, 2016 at 6:00 PM


Visibility: N/A

Pressure: 29.89 "Hg

Humidity: 62%

Dew Point: 66 °F

Location of Porto VelhoLocation

Historic Weather in Porto Velho — Graph

°F

Porto Velho Temperature Yesterday

Maximum temperature yesterday: 79 °F (at 3:00 PM)
Minimum temperature yesterday: 64 °F (at 6:00 AM)
Average temperature yesterday: 71 °F

High & Low Weather Summary for the Past Weeks

 TemperatureHumidityPressure
High100 °F (Apr 23, 8:00 PM)100% (Apr 14, 9:00 PM)30.04 "Hg (Apr 14, 9:00 PM)
Low64 °F (Apr 28, 6:00 AM)45% (Apr 23, 8:00 PM)29.68 "Hg (Apr 25, 4:00 PM)
Average80 °F81%29.85 "Hg
* Reported Apr 14 5:00 PM — Apr 29 5:00 PM, Porto Velho, Weather by CustomWeather, © 2016

Note: Actual official high and low records may vary slightly from our data, if they occured in-between our weather recording intervals... More about our weather records

Advertising

Porto Velho Weather History for the Previous 24 Hours

Scroll right to see more
 ConditionsComfort  
Time TempWeatherWind HumidityBarometerVisibility
5:00 PM
Fri, Apr 29
82 °FPartly sunny.No wind58%29.89 "HgN/A
4:00 PM84 °FScattered clouds.7 mph58%29.89 "HgN/A
3:00 PM84 °FScattered clouds.7 mph58%29.89 "HgN/A
2:00 PM84 °FPassing clouds.5 mph58%29.92 "HgN/A
1:00 PM82 °FPassing clouds.3 mph62%29.92 "HgN/A
12:00 PM81 °FPassing clouds.6 mph66%29.98 "HgN/A
11:00 AM79 °FPassing clouds.2 mph70%29.98 "HgN/A
10:00 AM77 °FPassing clouds.7 mph69%30.01 "HgN/A
9:00 AM73 °FSunny.9 mph78%29.98 "Hg10 mi
8:00 AM70 °FSunny.8 mph83%29.98 "Hg10 mi
7:00 AM70 °FSunny.2 mph78%29.95 "Hg10 mi
6:00 AM70 °FClear.3 mph78%29.95 "Hg10 mi
5:00 AM70 °FClear.2 mph78%29.95 "Hg10 mi
4:00 AM70 °FClear.2 mph78%29.92 "Hg10 mi
3:00 AM70 °FClear.No wind78%29.92 "Hg10 mi
2:00 AM70 °FClear.No wind78%29.95 "Hg10 mi
1:00 AM70 °FPassing clouds.2 mph78%29.95 "HgN/A
12:00 AM70 °FPartly cloudy.No wind78%29.98 "HgN/A
11:00 PM
Thu, Apr 28
70 °FPassing clouds.3 mph78%29.98 "HgN/A
10:00 PM70 °FPassing clouds.9 mph73%29.98 "HgN/A
9:00 PM70 °FPassing clouds.5 mph73%29.95 "HgN/A
8:00 PM72 °FPassing clouds.5 mph69%29.95 "HgN/A
7:00 PM72 °FPassing clouds.7 mph69%29.92 "HgN/A
6:00 PM75 °FPartly sunny.2 mph65%29.92 "HgN/A
Weather by CustomWeather, © 2016

See weather overviewHow to use our weather pages